[[{"header":{"parameterUnit":"m.s-1","parameterCategory":1,"la1":30.2991,"la2":30.254,"lo1":-89.0895,"lo2":-89.0444,"dy":0.0017,"dx":0.0017,"nx":28,"ny":28,"refTime":"2025-03-18T21:00:00:Z","depth":0,"parameterNumber":2,"parameterNumberName":"U-component_of_WINDS"},"data":[0,0,0,0,0,0,0,0,0,0,0,0,0,0,0,0,0,0,0,0,0,0,0,0,0,0,0,0,0,0,0,0,0,0,0,0,0,0,0,0,0,0,0,0,0,0,0,0,0,0,0,0,0,0,0,0,0,0,6.8221,6.8223,0,6.8353,6.8354,6.8356,6.8292,6.8289,6.8285,6.8282,6.8416,6.8422,6.8429,0,0,0,0,0,0,0,0,0,0,0,0,0,6.7915,6.7921,6.8221,6.8223,6.8224,6.8352,6.8354,6.8356,6.8293,6.8288,6.8284,6.828,6.8413,6.8421,6.8429,0,0,0,0,0,0,0,0,0,0,0,0,0,6.8047,6.7923,6.8221,6.8208,6.8208,6.8352,6.8354,6.8356,6.8293,6.8288,6.8283,6.8279,6.8411,6.842,6.843,6.8594,0,0,6.8461,6.8465,0,0,0,0,0,0,0,0,6.804,6.8058,6.8208,6.8209,6.821,6.8301,6.8295,6.8436,6.8295,6.8261,6.8282,6.8276,6.8381,6.8393,6.8429,6.86,6.8606,6.8462,6.8468,6.8472,6.8475,0,0,0,0,0,0,0,6.8031,6.8052,6.8273,6.8211,6.8211,6.8196,6.8209,6.8321,6.8348,6.8264,6.8259,6.8276,6.8381,6.842,6.8432,6.8608,6.8462,6.8471,6.8477,6.8481,6.892,6.8926,0,0,0,0,0,0,6.8022,6.8045,6.8269,6.8277,6.8111,6.8206,6.822,6.8277,6.8347,6.8352,6.828,6.8272,6.8405,6.842,6.8436,6.8633,6.8472,6.8482,6.8488,6.8915,6.8922,6.8928,0,0,0,0,0,0,6.8016,6.8043,6.8263,6.816,6.8187,6.8216,6.828,6.8282,6.8321,6.8359,6.8363,6.8315,6.8402,6.8422,6.8555,6.8637,6.8486,6.8495,6.8908,6.8917,6.8925,6.9027,0,0,0,0,0,0,6.8007,6.8041,6.8103,6.8162,6.8193,6.8381,6.8285,6.8288,6.8338,6.833,6.8393,6.8399,6.8399,6.8541,6.8565,6.8648,6.8503,6.8901,6.8912,6.8922,6.9016,6.9038,6.9056,0,0,0,0,0,6.7996,6.8126,6.8106,6.8134,6.8271,6.8385,6.8403,6.8402,6.8345,6.8408,6.8433,6.8397,6.8624,6.8555,6.8582,6.8669,6.8896,6.8909,6.8921,6.9008,6.9034,6.9056,0,0,0,0,0,0,6.8075,6.8133,6.8112,6.8265,6.8321,6.8375,6.8454,6.8429,6.8502,6.8491,6.8485,6.85,6.8639,6.8667,6.8589,6.8831,6.8751,6.877,6.8807,6.8833,6.8852,6.8842,6.8512,0,0,0,0,0,6.811,6.8198,6.8244,6.8375,6.8404,6.8424,6.8474,6.8468,6.8526,6.8549,6.8583,6.864,6.8725,6.878,6.886,6.902,6.9034,6.9094,6.9113,6.9129,6.9146,6.9234,6.9261,6.8969,6.8969,6.8969,0,0,6.8184,6.8226,6.8282,6.8392,6.8434,6.8526,6.8445,6.8544,6.8612,6.8564,6.8692,6.872,6.8783,6.8931,6.8998,6.8959,6.9229,6.9146,6.9158,6.9166,6.925,6.9277,6.9302,6.8978,6.8976,6.8975,0,0,6.8364,6.8405,6.8519,6.8563,6.8629,6.8642,6.867,6.8728,6.8745,6.8873,6.8839,6.892,6.9065,6.9112,6.9155,6.9355,6.9325,6.9381,6.9485,6.9571,6.9594,6.9614,6.9686,6.9712,6.9397,6.9398,6.9398,0,6.8447,6.8583,6.858,6.8683,6.8732,6.8694,6.8809,6.8852,6.8941,6.8976,6.8931,6.9114,6.9153,6.9312,6.9362,6.9397,6.9429,6.9374,6.9591,6.9611,6.963,6.9699,6.9726,6.9404,6.9403,6.9403,6.9402,0,6.8682,6.8777,6.8861,6.8948,6.9007,6.9116,6.9129,6.9189,6.9179,6.9197,6.9329,6.9376,6.9465,6.9502,6.9492,6.966,6.9634,6.9591,6.951,6.9664,6.9729,6.9755,6.9413,6.9411,6.9409,6.9407,0,0,6.8914,6.9,6.9031,6.907,6.9141,6.9215,6.9322,6.9409,6.9461,6.9524,6.9614,6.9739,6.9699,6.9748,6.9744,6.9819,6.9976,6.9766,6.9768,6.9804,7.0164,7.0197,7.0227,6.9956,6.9961,6.9965,7.0159,0,6.91,6.9288,6.9289,6.9462,6.9551,6.9516,6.961,6.9663,6.9683,6.9761,6.9783,6.9872,6.9813,6.9842,6.9915,6.9941,7.0048,6.9927,7.004,7.0044,7.0025,7.0261,7.0295,7.0476,7.0184,7.0188,7.0192,0,6.9341,6.9413,6.9596,6.9655,6.9692,6.9776,6.9857,6.9932,6.9992,7.0001,7.0057,7.0042,7.0151,7.0068,7.0219,7.0137,7.0184,7.0204,7.021,7.0221,7.0127,7.0277,7.0533,7.056,7.0231,7.0228,7.0225,0,6.9493,6.9635,6.9763,6.9798,6.987,6.993,6.9963,7.0018,7.0071,7.0142,7.0177,7.026,7.0305,7.0369,7.0377,7.0315,7.0529,7.0446,7.054,7.054,7.0586,7.0583,7.0853,7.0617,7.0616,7.0616,7.0615,0,6.9701,6.9814,6.9832,6.9911,7.0037,7.0037,7.0162,7.0189,7.0239,7.0323,7.0298,7.0377,7.0382,7.0463,7.047,7.0594,7.0615,7.0626,7.0626,7.0628,7.0627,7.0658,7.0645,7.0623,7.0621,7.062,7.0619,0,6.9891,6.9908,7.0045,7.0103,7.012,7.021,7.0259,7.0334,7.0352,7.0458,7.0483,7.0512,7.0606,7.062,7.0731,7.0735,7.0885,7.0872,7.0865,7.0863,7.0956,7.0947,7.1255,7.1296,7.1033,7.1035,7.1038,0,7.0022,7.0108,7.0175,7.023,7.0266,7.0354,7.0408,7.0412,7.047,7.0546,7.0612,7.0704,7.0778,7.0931,7.0961,7.1046,7.1035,7.1137,7.1048,7.1047,7.1037,7.1032,7.104,7.1154,7.1157,7.116,7.1162,0,7.0253,7.0258,7.0337,7.042,7.0486,7.0552,7.0613,7.0659,7.0671,7.0737,7.0834,7.0891,7.1005,7.1097,7.1181,7.1215,7.1191,7.119,7.1216,7.1219,7.1211,7.1217,7.0912,7.1183,7.118,7.1179,7.1178,7.1177,7.0418,7.0493,7.0553,7.0642,7.069,7.0748,7.0822,7.085,7.093,7.1023,7.1021,7.1127,7.1187,7.1297,7.1337,7.142,7.1387,7.1425,7.1435,7.1444,7.1453,7.1198,7.1436,7.1435,7.1435,7.1434,7.1434,0,7.0648,7.0685,7.0767,7.0855,7.0926,7.0897,7.0965,7.1026,7.112,7.1177,7.1251,7.1362,7.1452,7.149,7.1578,7.1638,7.1629,7.166,7.1656,7.1664,7.1478,7.1446,7.1666,7.1666,7.1666,7.1666,7.1666,7.1666,7.0776,7.0902,7.0914,7.1064,7.1099,7.1204,7.1245,7.1299,7.1345,7.1471,7.1545,7.157,7.162,7.1711,7.1792,7.1801,7.1835,7.1872,7.1876,7.1701,7.1677,7.1655,7.1625,7.1879,7.1879,7.2055,7.2057,7.2058]},{"header":{"parameterUnit":"m.s-1","parameterCategory":1,"la1":30.2991,"la2":30.254,"lo1":-89.0895,"lo2":-89.0444,"dy":0.0017,"dx":0.0017,"nx":28,"ny":28,"refTime":"2025-03-18T21:00:00:Z","depth":0,"parameterNumber":3,"parameterNumberName":"V-component_of_WINDS"},"data":[0,0,0,0,0,0,0,0,0,0,0,0,0,0,0,0,0,0,0,0,0,0,0,0,0,0,0,0,0,0,0,0,0,0,0,0,0,0,0,0,0,0,0,0,0,0,0,0,0,0,0,0,0,0,0,0,0,0,-6.8079,-6.8081,0,-6.8294,-6.8296,-6.8298,-6.8285,-6.8282,-6.8279,-6.8276,-6.8493,-6.8502,-6.851,0,0,0,0,0,0,0,0,0,0,0,0,0,-6.7656,-6.7663,-6.8078,-6.8081,-6.8084,-6.8293,-6.8296,-6.8299,-6.8286,-6.8282,-6.8278,-6.8275,-6.849,-6.8501,-6.8511,0,0,0,0,0,0,0,0,0,0,0,0,0,-6.7852,-6.7666,-6.8078,-6.8103,-6.8107,-6.8293,-6.8296,-6.83,-6.8287,-6.8282,-6.8277,-6.8273,-6.8487,-6.85,-6.8513,-6.8687,0,0,-6.8552,-6.8558,0,0,0,0,0,0,0,0,-6.7841,-6.7867,-6.8096,-6.8101,-6.8106,-6.8258,-6.8227,-6.843,-6.8288,-6.8218,-6.8276,-6.8271,-6.8419,-6.8437,-6.8488,-6.8697,-6.8706,-6.8554,-6.8562,-6.8567,-6.8571,0,0,0,0,0,0,0,-6.7827,-6.7858,-6.8163,-6.81,-6.8106,-6.8103,-6.8125,-6.8265,-6.8342,-6.8224,-6.8224,-6.8249,-6.842,-6.8475,-6.8492,-6.871,-6.8553,-6.8565,-6.8573,-6.8578,-6.9075,-6.908,0,0,0,0,0,0,-6.7808,-6.7847,-6.8157,-6.817,-6.7959,-6.8114,-6.8139,-6.8214,-6.8341,-6.8355,-6.8253,-6.8248,-6.8455,-6.8477,-6.85,-6.8714,-6.8567,-6.8579,-6.8587,-6.9069,-6.9076,-6.9082,0,0,0,0,0,0,-6.7799,-6.7836,-6.8148,-6.8008,-6.8048,-6.8126,-6.821,-6.8221,-6.8275,-6.8363,-6.8376,-6.8295,-6.8452,-6.8482,-6.8641,-6.8721,-6.8585,-6.8597,-6.9063,-6.9071,-6.9079,-6.9141,0,0,0,0,0,0,-6.7787,-6.7833,-6.79,-6.801,-6.8055,-6.8286,-6.8215,-6.8228,-6.8298,-6.8293,-6.8405,-6.8419,-6.8451,-6.8622,-6.8654,-6.8736,-6.8607,-6.9056,-6.9067,-6.9076,-6.9133,-6.9151,-6.9166,0,0,0,0,0,-6.7772,-6.7908,-6.7904,-6.7941,-6.8141,-6.8291,-6.8317,-6.8351,-6.8304,-6.8373,-6.8429,-6.8416,-6.8707,-6.8638,-6.8675,-6.8762,-6.9051,-6.9064,-6.9075,-6.9125,-6.9147,-6.9166,0,0,0,0,0,0,-6.7804,-6.7923,-6.7919,-6.8095,-6.8183,-6.8288,-6.8375,-6.8373,-6.8475,-6.8466,-6.8504,-6.8529,-6.869,-6.8742,-6.8663,-6.8938,-6.8873,-6.8893,-6.8898,-6.892,-6.8936,-6.892,-6.8618,0,0,0,0,0,-6.7832,-6.7944,-6.8042,-6.8187,-6.8232,-6.8296,-6.8363,-6.8382,-6.8474,-6.8511,-6.8579,-6.8668,-6.878,-6.8853,-6.896,-6.914,-6.9165,-6.9218,-6.9235,-6.9248,-6.9265,-6.9365,-6.939,-6.9121,-6.9121,-6.9121,0,0,-6.789,-6.7969,-6.8037,-6.8196,-6.8266,-6.8382,-6.8328,-6.8451,-6.8537,-6.8529,-6.8685,-6.8738,-6.884,-6.9011,-6.9089,-6.9059,-6.9345,-6.9264,-6.9274,-6.9283,-6.938,-6.9405,-6.9428,-6.913,-6.9128,-6.9127,0,0,-6.8055,-6.8126,-6.8256,-6.8328,-6.8436,-6.8478,-6.8509,-6.8616,-6.8651,-6.8808,-6.8805,-6.8907,-6.9099,-6.9172,-6.9235,-6.943,-6.9421,-6.9464,-6.9551,-6.9648,-6.9669,-6.9688,-6.9759,-6.9783,-6.948,-6.948,-6.948,0,-6.8114,-6.8288,-6.8323,-6.8448,-6.8519,-6.8518,-6.865,-6.8718,-6.8856,-6.8904,-6.8868,-6.911,-6.9179,-6.9367,-6.9415,-6.9465,-6.9502,-6.9451,-6.9664,-6.9683,-6.9701,-6.9769,-6.9795,-6.9485,-6.9484,-6.9484,-6.9483,0,-6.8355,-6.8476,-6.8567,-6.8702,-6.8782,-6.891,-6.8964,-6.9042,-6.9054,-6.91,-6.926,-6.9343,-6.9468,-6.9514,-6.9527,-6.9705,-6.9683,-6.9655,-6.9591,-6.9731,-6.9795,-6.9821,-6.9491,-6.949,-6.9488,-6.9487,0,0,-6.8545,-6.8698,-6.8732,-6.8793,-6.8913,-6.9007,-6.9135,-6.9259,-6.9325,-6.9419,-6.9528,-6.9691,-6.9667,-6.9738,-6.9759,-6.9844,-6.9994,-6.9806,-6.9809,-6.9839,-7.0197,-7.0218,-7.0247,-6.999,-6.9995,-6.9999,-7.0189,0,-6.8723,-6.8951,-6.8987,-6.9188,-6.9301,-6.9303,-6.9415,-6.95,-6.9547,-6.9649,-6.9699,-6.9815,-6.9774,-6.9817,-6.9901,-6.9958,-7.0067,-6.9945,-7.0091,-7.0096,-7.0066,-7.028,-7.0302,-7.0477,-7.0214,-7.0218,-7.0221,0,-6.8961,-6.9064,-6.9276,-6.9382,-6.9431,-6.9531,-6.9648,-6.9745,-6.9842,-6.987,-6.995,-6.9962,-7.0095,-7.0025,-7.0209,-7.0125,-7.0187,-7.0224,-7.0232,-7.0247,-7.0167,-7.0301,-7.0534,-7.056,-7.0261,-7.0258,-7.0255,0,-6.9079,-6.9271,-6.9423,-6.9476,-6.9603,-6.9673,-6.9729,-6.9822,-6.9895,-6.9997,-7.0044,-7.016,-7.0223,-7.0312,-7.0355,-7.0299,-7.0536,-7.0469,-7.0563,-7.0562,-7.0613,-7.0609,-7.0859,-7.0652,-7.0652,-7.0651,-7.0651,0,-6.9274,-6.9404,-6.9478,-6.9572,-6.9718,-6.9758,-6.9901,-6.9955,-7.0038,-7.0142,-7.0151,-7.0248,-7.0298,-7.0403,-7.0436,-7.0584,-7.0613,-7.0639,-7.0646,-7.0639,-7.0635,-7.068,-7.0669,-7.0658,-7.0657,-7.0655,-7.0654,0,-6.9432,-6.9486,-6.9653,-6.976,-6.979,-6.9893,-6.9985,-7.0076,-7.0122,-7.0254,-7.0287,-7.036,-7.0484,-7.0535,-7.0687,-7.071,-7.088,-7.0877,-7.0847,-7.085,-7.0941,-7.0932,-7.1228,-7.127,-7.1035,-7.1037,-7.1039,0,-6.9553,-6.9653,-6.9772,-6.9843,-6.9902,-7.0015,-7.009,-7.0134,-7.0211,-7.033,-7.0407,-7.0531,-7.0633,-7.0831,-7.0897,-7.1013,-7.1014,-7.111,-7.1032,-7.1021,-7.1017,-7.101,-7.1021,-7.1124,-7.1127,-7.1129,-7.113,0,-6.9762,-6.9785,-6.9892,-7.001,-7.0099,-7.0194,-7.0286,-7.0343,-7.0401,-7.0487,-7.0615,-7.0694,-7.085,-7.0974,-7.1094,-7.1151,-7.1151,-7.1155,-7.1183,-7.1176,-7.1155,-7.1168,-7.0887,-7.1148,-7.1146,-7.1145,-7.1144,-7.1143,-6.9906,-6.9995,-7.0094,-7.0213,-7.0288,-7.0374,-7.0465,-7.0524,-7.0632,-7.0763,-7.0782,-7.0919,-7.1014,-7.1176,-7.1238,-7.1346,-7.1321,-7.1361,-7.1372,-7.1381,-7.1388,-7.1137,-7.1368,-7.1367,-7.1367,-7.1366,-7.1366,0,-7.0116,-7.018,-7.029,-7.0419,-7.0514,-7.0506,-7.0608,-7.0688,-7.0808,-7.0898,-7.0999,-7.1146,-7.1266,-7.1342,-7.1463,-7.1535,-7.1538,-7.1565,-7.156,-7.1574,-7.1402,-7.1366,-7.1561,-7.1561,-7.1561,-7.1561,-7.1561,-7.1561,-7.0237,-7.0389,-7.0423,-7.0612,-7.0675,-7.081,-7.0869,-7.0949,-7.1021,-7.1185,-7.1286,-7.1335,-7.142,-7.1547,-7.1657,-7.1676,-7.1721,-7.175,-7.1768,-7.1606,-7.1586,-7.1566,-7.1533,-7.1759,-7.1759,-7.193,-7.1932,-7.1933]}]]